Location: Isle of Man Observatory
(54.1776°N, 4.6264°W)
Time: 15:18:08
(UTC+02:00)

ARIANE 6 FM1 Upper Stage - Pass Details

Date: 19 April 2026
Orbit: 526 x 601 km, 62.0° (Epoch: 19 May)

Event Time Altitude Azimuth Distance (km) Brightness Sun altitude
Rises 02:50:35 0° 307° (NW) 2,679 6.5 -24.3°
Reaches altitude 10° 02:52:48 10° 303° (WNW) 1,781 5.5 -24.3°
Enters shadow 02:54:48 28° 294° (WNW) 1,027 4.1 -24.2°
